Погода в Бордигере

Италия     43°47′05″N   7°39′33″E
темп.,
°C
ветер,
м/с
пор.,
м/с
влажн.,
%
обл.,
%
осадки,
мм/ч
давл.,
гПа
погр.,
м
18 мая, ср
ср1823:00+20зюз11795 0.0 101814
02:00+20всв22772 0.0 101822
05:00+19всв44835 0.1 1017163
08:00+20в44812 0.1 1019181
11:00+20вюв34795 0.0 1020171
14:00+20в12745 0.1 1020110
17:00+21с117194 0.4 102070
20:00+21с2275100 1.6 102070
19 мая, чт
чт1923:00+22ссв3379100 0.6 102120
02:00+21ссв447995 0.9 102232
05:00+21ссв457831 0.0 102347
08:00+21ссз337595 0.0 102418
11:00+21ююв337454 0.0 102580
14:00+21св117070 0.0 102597
17:00+21зсз116611 0.0 102485
20:00+21з3372100 0.0 102433
20 мая, пт
пт2023:00+22ссз226584 0.0 102511
02:00+21всв3372100 0.0 102621
05:00+21всв22755 0.0 102617
08:00+21всв22755 0.0 102724
11:00+21в44795 0.0 1027126
14:00+20в44810 0.0 1026195
17:00+21в22816 0.0 1025134
20:00+21в00795 0.0 102495
21 мая, сб
сб2123:00+20всв228120 0.0 102441
02:00+20всв448632 0.0 1023174
05:00+19всв44855 0.0 1022239
08:00+20всв3380100 0.0 1021212
11:00+20вюв228010 0.0 1020181
14:00+20в118195 0.0 1019158
17:00+21ююв227677 0.0 1018238
20:00+21вюв22817 0.0 1016192
22 мая, вс
вс2223:00+20всв66859 0.0 1016277
02:00+20св57849 0.0 1015350
05:00+20всв588373 0.0 1014431
08:00+20всв58828 0.0 1015443
11:00+20в57865 0.0 1015351
14:00+21юв11826 0.0 101452
17:00+20зюз338625 0.0 101291
20:00+20зюз3382100 0.0 1012116